Regional Weather Roundup
Issued by NWS

Home | Current Version | Previous Version | Text Only | Print | Product List | Glossary On
Versions: 1 2 3 4 5 6 7 8 9 10 11 12 13 14 15 16 17 18 19 20 21 22 23 24 25 26 27 28 29 30 31 32 33 34 35 36 37 38 39 40 41 42 43 44 45 46 47 48 49 50
000
ASUS45 KREV 071110
RWRNV
NEVADA REGIONAL WEATHER ROUNDUP
NATIONAL WEATHER SERVICE RENO NV
400 AM PDT TUE JUL 07 2015

NOTE: "FAIR" INDICATES FEW OR NO CLOUDS BELOW 12,000 FEET WITH NO
SIGNIFICANT WEATHER AND/OR OBSTRUCTIONS TO VISIBILITY.

NVZ001-003-004-071200-
WESTERN NEVADA

CITY           SKY/WX    TMP DP  RH WIND       PRES   REMARKS
RENO           MOCLDY    64  52  64 NW5       30.11S
CARSON CITY    FAIR      59  52  77 CALM      30.14F
MINDEN         MOCLDY    54  54 100 E5        30.14S
PYRAMID LAKE     N/A     72 N/A N/A NW3         N/A
FALLON         PTCLDY    62  50  64 CALM      30.07R
LOVELOCK       PTCLDY    65  53  65 NE5       30.06F
HAWTHORNE      CLEAR     70  48  46 CALM      30.10S
$$

NVZ002-CAZ072-073-071200-
NORTHERN AND CENTRAL SIERRA

CITY           SKY/WX    TMP DP  RH WIND       PRES   REMARKS
S. LAKE TAHOE  MOCLDY    51  47  86 S5        30.22S
TRUCKEE        PTCLDY    48  45  87 CALM      30.21F
SQUAW VLY 8000 NOT AVBL
SUSANVILLE     CLEAR     57  45  62 CALM      30.10S
BLUE CANYON    PTCLDY    61  50  67 CALM      30.17S
MAMMOTH LAKES  FAIR      48  43  81 N3        30.29F
BRIDGEPORT     FAIR      49  43  80 CALM      30.24F
$$

NVZ030-031-036-071200-
NORTHERN NEVADA

CITY           SKY/WX    TMP DP  RH WIND       PRES   REMARKS
ELKO           MOCLDY    62  46  55 CALM      30.12S
WINNEMUCCA     PTCLDY    61  49  64 S7        30.08
WENDOVER       PTCLDY    66  46  48 CALM      30.05F
$$

NVZ035-037-071200-
CENTRAL NEVADA

CITY           SKY/WX    TMP DP  RH WIND       PRES   REMARKS
ELY            PTCLDY    52  43  71 S8        30.22S
EUREKA           N/A     58  41  53 VRB3      30.18F
$$

NVZ013-014-071200-
SOUTH CENTRAL NEVADA

CITY           SKY/WX    TMP DP  RH WIND       PRES   REMARKS
TONOPAH        MOCLDY    64  46  52 CALM      30.16S
$$

NVZ017-020-022-071200-
SOUTHERN NEVADA

CITY           SKY/WX    TMP DP  RH WIND       PRES   REMARKS
LAS VEGAS      MOCLDY    79  63  57 S10       29.90R
N. LAS VEGAS   CLOUDY    79  63  57 S7        29.92S
NELLIS AFB     CLOUDY    82  61  49 S8        29.91R
HENDERSON      PTCLDY    74  58  57 S5        29.98R
MERCURY        CLOUDY    77  52  41 S8        29.99S
$$


USA.gov is the U.S. government's official web portal to all federal, state and local government web resources and services.